Location: Codford Saint Peter
(51.1597°N, 2.0531°W)
Time: 17:20:01
(UTC+00:00)

Envisat - Pass Details

Date: 06 February 2022
Orbit: 764 x 765 km, 98.2° (Epoch: 19 May)

Event Time Altitude Azimuth Distance (km) Brightness Sun altitude
Rises 04:06:38 0° 23° (NNE) 3,245 6.7 -33.1°
Reaches altitude 10° 04:09:19 10° 36° (NE) 2,314 6.0 -32.7°
Maximum altitude 04:13:34 26° 92° (E) 1,474 5.0 -32.1°
Drops below altitude 10° 04:17:47 10° 149° (SSE) 2,300 5.6 -31.5°
Sets 04:20:26 0° 162° (SSE) 3,221 6.3 -31.1°
